Tracking 19720 objects as of 26-Jun-2019
HD Live streaming from Space Station
objects crossing your sky now

COSMOS 940

Track COSMOS 940 now!
10-day predictions
COSMOS 940 is classified as:


NORAD ID: 10286
Int'l Code: 1977-079B
Perigee: 1,400.9 km
Apogee: 1,468.7 km
Inclination: 74.0 °
Period: 114.4 minutes
Semi major axis: 7805 km
RCS: 0.703 m2 (medium)
Launch date: August 24, 1977
Source: Commonwealth of Independent States (former USSR) (CIS)
Launch site: PLESETSK MISSILE AND SPACE COMPLEX (PKMTR)
aabbcc
Your satellite tracking list
Your tracking list is empty




NASA's NSSDC Master Catalog

Two Line Element Set (TLE):
1 10286U 77079B   19175.34952719 -.00000024  00000-0 -47585-4 0  9991
2 10286  74.0234 134.1352 0043389 152.9813   1.1475 12.58854972922501
Source of the keplerian elements: AFSPC